{"data":{"norad_id":62746,"epoch":"2026-09-21T00:03:17.819712Z","epoch_age_seconds":127873,"freshness":"FRESH","line1":"1 62746U 25014M   26264.00228958  .00010995  00000+0  40840-3 0  9993","line2":"2 62746  43.0034 131.7340 0001508 275.5943  84.4737 15.27584869 93122","mean_motion":15.27584869,"eccentricity":0.0001508,"inclination_deg":43.0034,"raan_deg":131.734,"arg_perigee_deg":275.5943,"mean_anomaly_deg":84.4737,"bstar":0.0004084,"rev_number":9312,"period_min":94.266448249299,"perigee_km":481.99985187607,"apogee_km":484.06918120546,"semimajor_km":6861.1715165408,"source":"CELESTRAK","updated_at":"2026-09-22T09:00:49.658169Z"}}